Volver al catálogo

STARLINK-5997

ActivoComunicacionesSSO
NORAD 56327·PAYLOAD·🇺🇸 United States

Lanzado Apr 27, 2023 desde Vandenberg Space Force Base

Loading…

Próximos Pases (próximas 24 horas)

TLE

ActualizadoSource: CelesTrak SupGP

Época: Sep 14, 2026, 22:23 UTC

1 56327C 23058L   26257.93312500  .00545310  00000+0  32879-1 0  2570
2 56327  97.2845 252.0423 0001338  85.7161 146.0142 15.10574777    14

Sigue STARLINK-5997 en tiempo real con AllMySat

Download on the App Store